Dewpoint
38 39 40 41 41 41 40 40 41 41 41 40 39 40 40 41 40 40 40 40 40 40 39 39 39 40 40 40 40 40 39 39 39 40 41 41 40 39 38 38 38 38 38 39 38 38 38 38 39 40 41 42 41 41 40 41 41 42 43 44 46 46 47 48 49 49 48 48 50
36 37 39 41 41 39 38 37 37 37 38 38 38 39 39 40 39 39 39 39 39 39 39 39 40 40 39 39 40 39 39 39 39 39 39 39 39 38 38 38 38 38 38 38 38 38 39 38 39 40 41 41 41 40 40 41 41 41 41 42 43 45 46 46 48 48 48 48 49
34 34 35 35 35 35 35 36 36 36 36 37 37 38 39 39 39 39 39 39 39 39 39 39 40 40 40 40 40 40 39 39 39 39 39 39 38 38 38 38 37 38 38 39 38 38 38 38 39 40 41 41 41 40 40 39 41 41 41 41 42 44 45 47 46 47 47 48 48
33 33 34 34 34 35 36 36 37 37 37 37 38 38 38 38 39 39 39 39 39 39 39 40 40 40 40 40 40 39 39 40 40 39 39 38 38 38 38 37 37 37 37 37 37 37 37 37 39 40 41 40 39 39 39 40 40 41 41 41 42 43 44 45 46 46 46 47 47
34 35 35 35 35 36 36 37 37 37 37 38 38 38 38 38 38 39 39 39 39 39 39 40 39 39 39 40 39 39 39 39 40 40 39 38 38 38 37 37 37 37 37 37 37 37 37 37 38 39 39 39 39 39 39 39 39 40 40 41 42 43 43 44 45 45 46 46 46
36 36 36 36 36 36 37 37 37 37 38 38 38 38 38 38 38 38 38 38 38 38 39 40 39 39 39 38 38 38 37 37 38 38 37 37 37 37 37 37 37 37 37 37 37 36 36 37 37 38 39 39 39 39 39 38 39 39 40 41 41 42 42 43 43 44 44 44 45
36 36 36 37 37 37 37 37 37 37 37 37 37 38 38 37 37 37 37 38 38 38 38 39 38 38 37 37 37 37 37 37 37 37 37 37 37 37 37 37 37 37 37 37 37 37 36 36 37 38 39 40 40 39 38 37 38 39 39 40 41 41 41 41 42 43 43 42 42
37 37 37 37 37 37 37 37 37 37 37 37 37 37 38 38 37 37 37 37 37 37 38 38 37 37 37 37 37 37 36 36 36 37 37 37 37 37 37 37 37 37 37 37 37 37 37 37 37 37 38 38 39 39 38 37 37 38 38 39 40 40 40 40 41 41 42 41 41
37 37 37 37 37 37 37 37 37 37 37 37 37 37 38 38 37 37 37 37 37 37 37 37 37 37 37 36 36 36 36 36 36 36 36 37 37 37 37 37 37 37 37 38 37 37 37 37 37 38 38 38 38 38 38 37 37 37 37 38 39 39 39 39 39 40 40 41 41
37 37 37 37 37 37 37 37 37 37 36 36 36 36 37 38 37 37 37 37 37 37 37 36 37 37 37 36 36 36 36 36 36 36 36 37 37 37 37 37 37 37 37 38 38 37 37 37 38 38 38 38 38 37 37 37 37 37 37 39 39 39 38 38 38 38 39 40 40
36 36 36 37 37 37 37 36 36 36 36 35 35 35 36 36 36 37 37 37 37 36 36 36 36 37 37 37 37 37 37 37 37 37 37 37 37 37 37 37 37 37 37 37 38 38 38 38 38 37 37 37 37 37 37 36 36 37 37 37 38 38 38 38 38 38 38 39 39
36 36 36 36 36 36 36 35 35 35 35 35 35 35 35 35 35 37 37 36 36 36 36 36 37 37 37 37 37 37 37 37 37 37 37 36 36 36 36 36 37 37 37 37 37 38 38 38 38 37 37 37 37 37 37 36 36 36 37 37 37 37 37 38 38 38 38 38 38
35 35 35 35 35 35 35 34 34 34 34 34 34 34 34 35 36 36 36 36 36 36 36 36 37 37 37 37 37 37 37 37 37 37 37 37 36 36 36 37 37 37 37 37 37 38 38 38 37 37 37 37 38 38 38 37 37 37 37 37 37 37 37 37 38 37 37 37 38
34 34 34 34 34 34 34 34 34 34 34 34 34 34 34 34 36 36 36 35 35 35 36 36 37 37 37 37 37 37 37 37 36 36 36 36 36 36 36 37 37 37 37 37 37 37 38 38 38 37 37 37 38 38 38 37 37 37 37 37 37 37 37 38 38 37 37 37 38
34 34 34 34 34 34 34 34 34 34 34 34 34 34 34 34 35 36 36 35 35 35 36 36 36 37 37 37 37 37 36 36 36 36 36 36 36 36 36 37 36 37 37 37 38 38 38 38 38 38 37 37 37 37 37 37 37 37 37 37 37 38 38 38 38 38 37 37 37
33 34 34 34 34 34 34 34 34 34 34 34 34 34 34 35 35 36 36 36 36 36 36 36 36 36 37 37 37 37 37 37 37 37 37 37 37 37 37 37 38 39 39 40 39 39 39 40 39 38 38 37 37 37 37 37 37 37 37 37 37 37 38 38 38 38 38 37 38
33 33 33 34 34 34 34 34 34 34 34 34 34 34 34 34 35 35 36 36 36 36 36 35 36 36 36 37 37 37 37 37 37 37 38 38 39 39 40 40 41 42 42 42 42 41 41 41 41 39 38 37 37 37 37 37 37 37 37 37 37 37 37 38 38 38 38 37 38
33 33 33 33 33 34 34 34 34 34 34 34 34 34 34 34 34 35 35 36 36 35 35 35 35 35 36 36 37 37 38 38 38 38 38 39 41 41 41 41 42 43 43 43 43 43 43 42 41 40 39 38 38 37 37 37 37 36 36 36 36 36 36 37 37 37 37 37 38
33 33 33 33 33 33 34 34 34 33 33 34 34 34 34 34 34 34 34 35 35 35 35 35 35 35 35 36 36 37 37 38 37 38 39 40 41 41 41 41 42 42 42 42 44 44 44 42 41 40 40 40 39 38 38 37 37 37 37 37 37 37 36 36 36 36 36 37 37
32 32 32 32 33 33 33 33 33 33 33 33 33 33 33 33 33 33 34 34 35 35 34 34 34 34 34 34 34 35 37 37 37 38 39 41 41 41 41 41 41 41 42 42 43 44 44 43 41 41 41 40 40 40 39 39 39 39 39 39 39 38 37 37 37 37 36 36 36
32 32 32 32 32 32 33 33 33 33 33 33 33 33 33 33 33 33 33 34 34 34 34 34 33 33 33 33 33 34 36 38 38 39 40 41 41 41 41 41 41 41 42 42 43 44 45 43 42 42 42 41 41 41 41 41 41 41 41 41 41 41 40 40 39 39 38 38 37
32 32 32 32 32 33 33 33 32 32 32 33 33 33 33 33 33 33 33 33 34 34 34 34 34 33 33 33 34 36 38 39 39 40 40 41 41 41 41 42 41 41 41 42 43 44 44 43 42 42 42 42 42 42 42 41 41 41 41 41 41 41 41 41 41 41 41 41 40
32 32 32 32 32 33 33 33 32 32 32 33 33 33 33 33 33 33 33 33 34 34 34 34 34 34 34 35 37 38 39 40 40 41 41 41 41 42 42 42 41 41 41 42 42 42 42 41 41 41 41 41 42 42 42 42 41 41 41 41 41 41 41 41 41 41 41 41 41
32 32 32 32 32 32 32 32 32 32 32 33 33 33 33 33 33 33 33 33 34 34 35 35 35 35 36 37 38 39 40 40 40 41 41 41 42 42 42 42 41 41 41 42 41 41 41 40 40 40 40 40 41 41 41 41 41 41 40 40 40 40 40 40 39 39 39 40 41
31 32 32 32 32 32 32 32 32 32 33 33 33 33 33 33 33 32 32 33 34 35 35 35 35 36 37 38 39 39 40 40 40 40 40 41 41 41 41 41 41 41 41 41 41 41 41 40 39 38 38 39 39 40 40 40 39 38 38 37 37 38 38 38 37 37 37 37 38
31 31 32 32 31 31 31 32 32 32 33 33 33 32 32 32 32 32 32 33 34 34 34 34 35 37 38 38 38 38 39 39 40 40 40 39 39 40 40 41 41 41 41 40 40 40 40 39 38 38 37 37 37 38 38 37 36 36 35 35 35 35 35 36 36 36 36 36 36
31 31 31 31 31 31 31 31 32 32 33 33 32 32 32 32 31 31 31 33 33 34 33 34 36 37 37 37 37 37 37 38 39 39 38 37 37 37 39 40 40 40 41 40 40 39 39 38 38 37 37 36 36 36 36 36 34 34 33 33 33 33 33 33 33 33 33 33 33
31 31 31 31 30 30 30 31 32 32 33 32 32 31 31 31 30 30 31 32 32 32 33 34 35 36 36 36 36 36 37 38 38 37 36 35 36 37 37 38 39 40 40 40 39 38 37 37 37 37 36 35 34 34 33 33 33 32 32 32 32 32 32 32 32 32 32 32 32
31 31 31 31 29 29 29 30 31 32 32 32 31 31 31 30 29 29 30 32 32 32 32 34 34 35 35 35 35 35 36 37 36 36 35 34 35 36 36 37 38 40 40 40 39 38 37 37 36 36 36 35 34 33 32 32 32 32 32 32 32 32 32 32 32 32 32 31 32
30 30 30 30 29 29 29 29 31 31 31 30 29 30 31 31 29 29 30 31 32 32 33 33 34 34 34 34 34 35 35 35 34 34 33 33 34 34 34 36 37 38 40 40 39 38 37 36 36 35 35 34 32 32 31 31 31 31 31 31 31 31 31 31 31 31 31 31 31
28 28 29 29 29 29 29 29 30 31 31 29 28 29 30 29 29 29 29 31 32 33 33 33 33 33 33 33 34 34 34 33 33 33 32 32 32 33 33 33 34 36 38 39 39 38 37 36 35 35 34 33 32 31 30 30 30 30 30 30 30 30 30 30 30 30 30 30 30
28 28 28 30 30 30 29 29 28 30 31 29 28 29 29 28 29 29 29 30 32 32 32 32 32 32 32 32 33 33 33 32 32 32 32 32 31 31 31 32 32 34 37 38 39 38 37 36 35 34 33 33 31 30 29 30 30 29 29 29 29 28 28 28 28 28 28 28 29
28 28 28 30 30 31 30 29 28 30 32 30 30 29 28 28 28 28 28 30 32 32 31 30 30 31 31 31 32 32 31 30 30 30 31 31 30 30 30 30 31 32 35 36 37 37 37 36 34 34 33 32 31 30 29 29 29 29 28 28 28 28 28 27 28 28 28 28 28
28 28 29 30 30 30 30 30 30 32 32 31 32 30 28 28 26 26 28 32 32 30 29 29 30 31 31 31 31 31 30 29 28 28 28 29 29 28 28 28 28 31 33 34 35 36 37 35 34 33 32 32 30 29 28 28 28 28 28 28 28 28 28 27 27 27 27 27 28
28 29 29 30 30 30 30 31 32 32 32 31 32 31 29 28 25 25 28 33 33 30 28 28 29 30 31 31 31 30 29 28 27 27 27 27 27 27 27 27 27 30 32 32 33 34 35 35 33 32 32 31 29 28 27 27 27 27 27 27 27 27 27 27 27 26 26 26 27
28 29 29 29 29 30 30 31 31 31 31 31 31 32 30 27 25 27 30 34 34 32 28 27 27 28 29 30 30 29 28 27 26 26 26 26 26 26 26 26 26 29 31 32 32 32 34 34 33 32 31 29 28 27 27 27 27 27 27 26 26 26 26 26 26 26 26 26 26
28 28 28 29 29 29 30 31 30 29 29 29 31 32 30 27 27 29 32 35 33 31 29 27 27 27 28 29 29 29 28 27 26 25 25 25 25 25 25 25 25 27 30 31 31 32 32 33 32 32 30 28 27 26 26 26 26 26 25 25 25 25 25 26 26 26 25 25 26
27 27 27 28 28 29 30 30 29 28 28 28 31 31 30 26 27 30 33 34 32 31 30 28 26 26 27 28 28 28 28 27 26 25 24 24 24 24 24 24 24 26 28 29 30 31 32 32 32 31 29 27 26 25 25 25 25 25 24 24 24 24 24 25 25 25 25 24 25
26 26 26 26 27 29 30 29 28 28 28 30 32 31 28 25 28 32 34 32 32 31 29 27 26 26 27 28 27 27 27 27 26 25 24 24 24 25 25 24 24 25 27 28 29 29 30 32 32 31 29 27 26 25 24 24 23 23 23 23 23 23 23 23 23 24 24 24 26
26 26 27 27 28 28 29 28 28 28 28 31 33 31 28 26 30 33 34 32 32 30 28 26 26 27 28 28 25 24 25 26 26 26 25 24 25 26 26 25 24 24 26 27 28 28 28 30 31 31 29 27 25 24 23 23 22 22 21 21 21 21 21 22 22 23 23 23 24
26 26 27 27 28 28 28 28 27 28 29 32 33 31 28 28 31 33 34 32 32 31 29 27 26 26 27 28 25 24 25 26 27 26 25 24 24 25 26 24 23 23 23 25 26 27 27 27 29 29 29 27 25 24 23 22 21 20 20 20 20 20 21 21 21 21 21 21 22